INMARSAT 3-F2 1 24307U 96053A 12035.10851758 -.00000121 00000-0 10000-3 0 827 2 24307 000.1138 039.1851 0005977 268.7420 209.3166 01.00272783 56430 INMARSAT 3-F3 1 24674U 96070A 12034.54059090 .00000043 00000-0 10000-3 0 1114 2 24674 000.1299 041.8886 0005791 275.8289 188.1229 01.00274748 55389 INMARSAT 3-F4 1 24819U 97027A 12035.10968516 -.00000285 00000-0 10000-3 0 9727 2 24819 001.9295 071.8282 0004970 236.2719 171.0698 01.00270825 53814 INMARSAT 3-F5 1 25153U 98006B 12033.83499198 .00000144 00000-0 10000-3 0 9633 2 25153 000.4128 355.3061 0004114 312.1636 150.2576 01.00270557 51300 ARTEMIS 1 26863U 01029A 12033.93180828 .00000121 00000-0 10000-3 0 2446 2 26863 009.6398 056.1883 0003037 287.6604 145.4713 01.00272882 39781 MTSAT-1R 1 28622U 05006A 12032.53531311 -.00000276 00000-0 10000-3 0 6145 2 28622 000.0368 266.9752 0000550 067.9401 128.9585 01.00274142 25379 ANIK F1-R 1 28868U 05036A 12034.24219595 -.00000071 00000-0 10000-3 0 9402 2 28868 000.0144 006.9036 0001711 274.5002 191.2958 01.00272018 23536 GALAXY 15 1 28884U 05041A 12033.11425723 .00000082 00000-0 10000-3 0 2845 2 28884 000.0149 043.2263 0002540 260.4548 096.1477 01.00273558 23118 INMARSAT 4-F2 1 28899U 05044A 12033.74952179 .00000144 00000-0 10000-3 0 738 2 28899 002.2118 337.4306 0002698 330.3442 119.4495 01.00273932 22893 MTSAT-2 1 28937U 06004A 12034.45341265 -.00000239 +00000-0 +10000-3 0 01024 2 28937 000.0206 087.6123 0001938 258.7943 094.9134 01.00273725021870 INMARSAT 4-F3 1 33278U 08039A 12034.50939222 -.00000133 00000-0 10000-3 0 5465 2 33278 003.0001 342.0081 0002458 322.1338 274.6681 01.00271605 12715 QZS-1 (MICHIBIKI) 1 37158U 10045A 12034.49113596 -.00000109 00000-0 10000-3 0 2552 2 37158 040.7482 187.8134 0749220 270.0374 348.4478 01.00272712 5139 GSAT 8 1 37605U 11022A 12033.76481384 .00000087 00000-0 10000-3 0 1460 2 37605 000.1129 261.9141 0011442 322.8178 238.1021 01.00278132 2624